[[{"header":{"parameterUnit":"m.s-1","parameterCategory":1,"la1":30.2991,"la2":30.254,"lo1":-89.0895,"lo2":-89.0444,"dy":0.0017,"dx":0.0017,"nx":28,"ny":28,"refTime":"2024-05-04T09:00:00:Z","depth":0,"parameterNumber":2,"parameterNumberName":"U-component_of_WINDS"},"data":[0,0,0,0,0,0,0,0,0,0,0,0,0,0,0,0,0,0,0,0,0,0,0,0,0,0,0,0,0,0,0,0,0,0,0,0,0,0,0,0,0,0,0,0,0,0,0,0,0,0,0,0,0,0,0,0,0,0,-0.5719,-0.572,0,-0.5755,-0.5755,-0.5755,-0.5741,-0.574,-0.574,-0.5739,-0.5777,-0.5779,-0.5781,0,0,0,0,0,0,0,0,0,0,0,0,0,-0.5643,-0.5645,-0.5719,-0.572,-0.572,-0.5754,-0.5755,-0.5755,-0.5741,-0.574,-0.5739,-0.5738,-0.5777,-0.5779,-0.5781,0,0,0,0,0,0,0,0,0,0,0,0,0,-0.5677,-0.5645,-0.5719,-0.5717,-0.5717,-0.5754,-0.5755,-0.5756,-0.5742,-0.574,-0.5739,-0.5738,-0.5776,-0.5779,-0.5781,-0.5823,0,0,-0.579,-0.5791,0,0,0,0,0,0,0,0,-0.5675,-0.568,-0.5717,-0.5717,-0.5718,-0.5742,-0.5742,-0.5778,-0.5742,-0.5733,-0.5739,-0.5737,-0.5767,-0.577,-0.578,-0.5825,-0.5827,-0.579,-0.5791,-0.5793,-0.5793,0,0,0,0,0,0,0,-0.5673,-0.5678,-0.5733,-0.5718,-0.5718,-0.5716,-0.5719,-0.5749,-0.5756,-0.5733,-0.5732,-0.5737,-0.5767,-0.5777,-0.578,-0.5827,-0.579,-0.5792,-0.5794,-0.5795,-0.5911,-0.5912,0,0,0,0,0,0,-0.567,-0.5677,-0.5732,-0.5734,-0.5693,-0.5718,-0.5722,-0.5736,-0.5756,-0.5758,-0.5738,-0.5736,-0.5773,-0.5777,-0.5782,-0.5833,-0.5793,-0.5795,-0.5797,-0.5909,-0.5911,-0.5912,0,0,0,0,0,0,-0.5669,-0.5675,-0.5731,-0.5705,-0.5712,-0.5721,-0.5736,-0.5737,-0.5747,-0.5759,-0.5761,-0.5747,-0.5772,-0.5778,-0.5813,-0.5835,-0.5796,-0.5799,-0.5907,-0.591,-0.5912,-0.5936,0,0,0,0,0,0,-0.5666,-0.5675,-0.569,-0.5706,-0.5714,-0.5761,-0.5737,-0.5739,-0.5752,-0.575,-0.5768,-0.577,-0.5772,-0.5809,-0.5816,-0.5838,-0.5801,-0.5906,-0.5908,-0.5911,-0.5934,-0.5939,-0.5944,0,0,0,0,0,-0.5664,-0.5696,-0.5691,-0.5697,-0.5732,-0.5762,-0.5767,-0.5767,-0.5753,-0.5769,-0.5777,-0.5769,-0.5831,-0.5813,-0.582,-0.5843,-0.5904,-0.5908,-0.5911,-0.5931,-0.5938,-0.5944,0,0,0,0,0,0,-0.5683,-0.5698,-0.5692,-0.573,-0.5745,-0.5759,-0.578,-0.5774,-0.5794,-0.5791,-0.5792,-0.5796,-0.5833,-0.5841,-0.5821,-0.5886,-0.5866,-0.5871,-0.5879,-0.5885,-0.589,-0.5888,-0.5803,0,0,0,0,0,-0.5691,-0.5713,-0.5725,-0.5757,-0.5765,-0.5771,-0.5784,-0.5783,-0.5799,-0.5805,-0.5816,-0.5832,-0.5855,-0.587,-0.5892,-0.5935,-0.5939,-0.5954,-0.5959,-0.5963,-0.5968,-0.5993,-0.6,-0.5923,-0.5923,-0.5923,0,0,-0.5709,-0.572,-0.5733,-0.5761,-0.5772,-0.5796,-0.5776,-0.5802,-0.582,-0.5809,-0.5844,-0.5852,-0.587,-0.591,-0.5928,-0.5918,-0.599,-0.5967,-0.597,-0.5973,-0.5997,-0.6004,-0.6011,-0.5925,-0.5925,-0.5925,0,0,-0.5754,-0.5763,-0.5792,-0.5804,-0.5821,-0.5825,-0.5832,-0.5848,-0.5853,-0.5887,-0.588,-0.5902,-0.5942,-0.5956,-0.5968,-0.6019,-0.6014,-0.6027,-0.6053,-0.6078,-0.6084,-0.6089,-0.6109,-0.6116,-0.6031,-0.6031,-0.6031,0,-0.5774,-0.5809,-0.5808,-0.5834,-0.5848,-0.5838,-0.5868,-0.588,-0.5904,-0.5914,-0.5902,-0.5953,-0.5964,-0.6008,-0.6021,-0.603,-0.604,-0.6025,-0.6083,-0.6088,-0.6093,-0.6112,-0.612,-0.6032,-0.6032,-0.6032,-0.6032,0,-0.5834,-0.5858,-0.5879,-0.5902,-0.5918,-0.5946,-0.595,-0.5966,-0.5965,-0.597,-0.6006,-0.602,-0.6045,-0.6055,-0.6054,-0.6099,-0.6093,-0.6082,-0.6062,-0.6102,-0.612,-0.6127,-0.6035,-0.6034,-0.6034,-0.6033,0,0,-0.5892,-0.5915,-0.5923,-0.5934,-0.5952,-0.5972,-0.6,-0.6024,-0.6039,-0.6056,-0.6081,-0.6115,-0.6106,-0.6119,-0.6119,-0.6141,-0.6183,-0.6127,-0.6128,-0.6139,-0.6236,-0.6245,-0.6253,-0.6178,-0.618,-0.6181,-0.6235,0,-0.594,-0.5989,-0.5989,-0.6035,-0.6058,-0.605,-0.6075,-0.609,-0.6097,-0.6119,-0.6126,-0.6151,-0.6135,-0.6144,-0.6164,-0.6173,-0.6203,-0.6169,-0.6204,-0.6205,-0.6201,-0.6263,-0.6272,-0.6322,-0.6242,-0.6243,-0.6244,0,-0.6002,-0.6021,-0.6069,-0.6086,-0.6096,-0.6118,-0.6141,-0.6161,-0.6179,-0.6182,-0.6198,-0.6195,-0.6226,-0.6204,-0.6247,-0.6225,-0.6239,-0.6246,-0.6248,-0.6252,-0.6228,-0.627,-0.6338,-0.6347,-0.6255,-0.6254,-0.6253,0,-0.6042,-0.608,-0.6113,-0.6123,-0.6143,-0.6159,-0.6168,-0.6184,-0.6199,-0.622,-0.623,-0.6254,-0.6267,-0.6286,-0.629,-0.6274,-0.6334,-0.6313,-0.634,-0.634,-0.6354,-0.6353,-0.6426,-0.636,-0.636,-0.636,-0.636,0,-0.6096,-0.6127,-0.6132,-0.6153,-0.6187,-0.6187,-0.6222,-0.623,-0.6244,-0.6268,-0.6262,-0.6285,-0.6288,-0.6312,-0.6315,-0.6352,-0.6358,-0.6362,-0.6363,-0.6364,-0.6363,-0.6374,-0.6371,-0.6362,-0.6361,-0.6361,-0.6361,0,-0.6147,-0.6152,-0.6189,-0.6204,-0.6209,-0.6234,-0.6248,-0.6269,-0.6275,-0.6305,-0.6312,-0.6321,-0.6349,-0.6355,-0.6388,-0.639,-0.6434,-0.6431,-0.6428,-0.6428,-0.6456,-0.6454,-0.654,-0.6552,-0.6476,-0.6477,-0.6477,0,-0.6182,-0.6205,-0.6224,-0.6239,-0.6249,-0.6273,-0.6288,-0.629,-0.6306,-0.6329,-0.6348,-0.6374,-0.6396,-0.6441,-0.6452,-0.6478,-0.6476,-0.6504,-0.648,-0.648,-0.6479,-0.6478,-0.6481,-0.651,-0.651,-0.6511,-0.6512,0,-0.6245,-0.6246,-0.6268,-0.6291,-0.6309,-0.6328,-0.6345,-0.6358,-0.6362,-0.6381,-0.6409,-0.6426,-0.646,-0.6488,-0.6514,-0.6524,-0.652,-0.6519,-0.6527,-0.6529,-0.6527,-0.653,-0.6443,-0.6517,-0.6517,-0.6516,-0.6516,-0.6516,-0.629,-0.6311,-0.6328,-0.6352,-0.6366,-0.6382,-0.6403,-0.6412,-0.6435,-0.6462,-0.6462,-0.6493,-0.6511,-0.6546,-0.6558,-0.6583,-0.6575,-0.6586,-0.6589,-0.6592,-0.6596,-0.6522,-0.6588,-0.6588,-0.6588,-0.6587,-0.6587,0,-0.6354,-0.6364,-0.6387,-0.6412,-0.6432,-0.6424,-0.6443,-0.6461,-0.6489,-0.6506,-0.6527,-0.6561,-0.6588,-0.66,-0.6627,-0.6645,-0.6644,-0.6653,-0.6652,-0.6655,-0.6601,-0.6592,-0.6653,-0.6653,-0.6653,-0.6653,-0.6653,-0.6653,-0.639,-0.6425,-0.6429,-0.6471,-0.6481,-0.6511,-0.6523,-0.6539,-0.6553,-0.659,-0.6612,-0.662,-0.6636,-0.6664,-0.6689,-0.6693,-0.6704,-0.6714,-0.6716,-0.6665,-0.6659,-0.6653,-0.6644,-0.6716,-0.6716,-0.6769,-0.6769,-0.677]},{"header":{"parameterUnit":"m.s-1","parameterCategory":1,"la1":30.2991,"la2":30.254,"lo1":-89.0895,"lo2":-89.0444,"dy":0.0017,"dx":0.0017,"nx":28,"ny":28,"refTime":"2024-05-04T09:00:00:Z","depth":0,"parameterNumber":3,"parameterNumberName":"V-component_of_WINDS"},"data":[0,0,0,0,0,0,0,0,0,0,0,0,0,0,0,0,0,0,0,0,0,0,0,0,0,0,0,0,0,0,0,0,0,0,0,0,0,0,0,0,0,0,0,0,0,0,0,0,0,0,0,0,0,0,0,0,0,0,1.2533,1.2533,0,1.2497,1.2497,1.2496,1.2454,1.2454,1.2453,1.2453,1.2414,1.2414,1.2413,0,0,0,0,0,0,0,0,0,0,0,0,0,1.2564,1.2564,1.2533,1.2533,1.2532,1.2497,1.2497,1.2496,1.2455,1.2454,1.2453,1.2452,1.2414,1.2414,1.2413,0,0,0,0,0,0,0,0,0,0,0,0,0,1.2542,1.2564,1.2533,1.2507,1.2505,1.2497,1.2497,1.2496,1.2455,1.2454,1.2453,1.2452,1.2415,1.2414,1.2413,1.2428,0,0,1.2411,1.2411,0,0,0,0,0,0,0,0,1.2543,1.2541,1.2512,1.2509,1.2506,1.2479,1.2494,1.2473,1.2455,1.2474,1.2453,1.2451,1.2437,1.2434,1.2429,1.2427,1.2425,1.2411,1.2411,1.2411,1.241,0,0,0,0,0,0,0,1.2545,1.2542,1.2519,1.2511,1.2508,1.2497,1.2493,1.249,1.2461,1.2472,1.2469,1.2465,1.2435,1.243,1.2428,1.2424,1.2411,1.2411,1.241,1.241,1.2432,1.2433,0,0,0,0,0,0,1.255,1.2544,1.252,1.2518,1.2523,1.2497,1.2492,1.2489,1.2461,1.2456,1.2466,1.2463,1.2432,1.2429,1.2427,1.2443,1.2411,1.241,1.241,1.2431,1.2432,1.2433,0,0,0,0,0,0,1.2551,1.2549,1.2521,1.253,1.2526,1.2498,1.2494,1.2489,1.2484,1.2456,1.2451,1.2467,1.2431,1.2428,1.2428,1.2441,1.241,1.2409,1.243,1.2432,1.2433,1.2475,0,0,0,0,0,0,1.2552,1.2549,1.2555,1.253,1.2525,1.2524,1.2495,1.2489,1.2483,1.2479,1.2455,1.245,1.243,1.243,1.2428,1.2439,1.2409,1.2429,1.2431,1.2432,1.2472,1.2477,1.2482,0,0,0,0,0,1.2554,1.2568,1.2556,1.2553,1.2532,1.2525,1.2522,1.2499,1.2484,1.249,1.2472,1.2451,1.244,1.243,1.2428,1.2439,1.2428,1.243,1.2432,1.247,1.2476,1.2482,0,0,0,0,0,0,1.2594,1.2564,1.255,1.2557,1.2544,1.2518,1.2524,1.2506,1.2497,1.2493,1.2464,1.2459,1.2463,1.2451,1.2441,1.2452,1.2431,1.2433,1.246,1.2466,1.2471,1.2474,1.2408,0,0,0,0,0,1.2604,1.2601,1.2575,1.2584,1.2578,1.2552,1.2548,1.2531,1.2517,1.2511,1.2493,1.2479,1.2472,1.2468,1.2461,1.247,1.2464,1.2477,1.2482,1.2486,1.2488,1.2492,1.2497,1.2441,1.2441,1.2441,0,0,1.2624,1.2607,1.2607,1.2591,1.2579,1.2577,1.2548,1.2547,1.2544,1.251,1.251,1.2497,1.2479,1.2485,1.2486,1.2475,1.2502,1.2489,1.2492,1.2492,1.2495,1.25,1.2505,1.2442,1.2442,1.2442,0,0,1.2659,1.2647,1.2652,1.2641,1.2623,1.2606,1.2608,1.2585,1.2575,1.2574,1.2549,1.2546,1.2535,1.2523,1.2516,1.2548,1.2528,1.2546,1.2572,1.2576,1.2581,1.2584,1.2596,1.26,1.2548,1.2548,1.2548,0,1.2686,1.2682,1.2657,1.2658,1.2652,1.2621,1.2627,1.2617,1.2597,1.2594,1.2581,1.2567,1.2553,1.2555,1.2563,1.2558,1.2559,1.2548,1.2582,1.2586,1.2589,1.2599,1.2604,1.255,1.255,1.255,1.255,0,1.2716,1.2714,1.2721,1.2703,1.2698,1.2701,1.2676,1.2673,1.2657,1.2641,1.2641,1.2623,1.2612,1.2611,1.2595,1.2611,1.2605,1.2588,1.2565,1.2597,1.2606,1.261,1.2554,1.2553,1.2552,1.2551,0,0,1.2776,1.2745,1.2748,1.274,1.2719,1.2716,1.2718,1.2707,1.2705,1.2693,1.2693,1.2685,1.2669,1.2661,1.2643,1.2647,1.2674,1.2629,1.2629,1.2638,1.2691,1.2704,1.2709,1.2661,1.2661,1.2662,1.2692,0,1.2808,1.2809,1.2787,1.2794,1.2792,1.2763,1.2764,1.2751,1.2737,1.2732,1.2715,1.271,1.269,1.2685,1.2687,1.267,1.2684,1.2667,1.266,1.2661,1.2666,1.2714,1.2727,1.2757,1.2696,1.2696,1.2697,0,1.2844,1.2835,1.2843,1.2821,1.2819,1.2821,1.2809,1.2805,1.279,1.2779,1.277,1.275,1.275,1.2729,1.2728,1.2717,1.2713,1.2704,1.2705,1.2703,1.2681,1.2714,1.2766,1.2771,1.2702,1.2702,1.2701,0,1.2888,1.2877,1.288,1.2874,1.2849,1.2851,1.284,1.2824,1.2819,1.2808,1.2805,1.2794,1.2789,1.2781,1.2758,1.2745,1.276,1.2737,1.2751,1.2752,1.2755,1.2755,1.2808,1.2753,1.2753,1.2753,1.2752,0,1.2925,1.2931,1.2899,1.2901,1.2906,1.288,1.2886,1.2873,1.2859,1.2858,1.2832,1.2831,1.2801,1.2797,1.2779,1.2781,1.2779,1.277,1.2765,1.2772,1.2773,1.2769,1.2767,1.2754,1.2753,1.2753,1.2753,0,1.2974,1.2953,1.2954,1.2931,1.2925,1.293,1.291,1.291,1.2894,1.2893,1.2891,1.2866,1.286,1.2836,1.2824,1.2812,1.282,1.2811,1.2826,1.2822,1.2837,1.2836,1.2889,1.2895,1.2836,1.2837,1.2837,0,1.3,1.3003,1.2981,1.2978,1.2969,1.2965,1.296,1.2935,1.2931,1.2914,1.2916,1.2908,1.29,1.2891,1.2872,1.2862,1.2852,1.2872,1.2851,1.2858,1.2853,1.2853,1.2853,1.2876,1.2877,1.2877,1.2878,0,1.3047,1.3036,1.303,1.3021,1.3016,1.3007,1.2996,1.2996,1.2968,1.2964,1.2958,1.2952,1.294,1.2932,1.2919,1.2908,1.2888,1.2885,1.2887,1.2895,1.2903,1.2899,1.2838,1.2884,1.2883,1.2883,1.2882,1.2882,1.3085,1.3087,1.3072,1.3066,1.3056,1.3047,1.3046,1.303,1.3025,1.3013,1.2999,1.2994,1.2979,1.296,1.295,1.2946,1.2935,1.2939,1.294,1.2941,1.2945,1.2904,1.2944,1.2943,1.2943,1.2943,1.2943,0,1.3131,1.312,1.3115,1.3102,1.3097,1.308,1.3067,1.3065,1.3061,1.3049,1.3042,1.3034,1.3027,1.3007,1.2997,1.2997,1.2988,1.2996,1.2996,1.2993,1.2955,1.2954,1.3003,1.3003,1.3003,1.3003,1.3003,1.3003,1.3155,1.3158,1.3146,1.3143,1.3132,1.3128,1.3122,1.3113,1.3103,1.3097,1.309,1.3078,1.3062,1.3051,1.3043,1.3037,1.3035,1.3046,1.3037,1.3002,1.2996,1.299,1.2989,1.3045,1.3045,1.3075,1.3076,1.3076]}]]